sat.trackr.live / text

‹ back to catalog

STARLINK-31707

NORAD 59736 · 2024-090G

PAYLOAD ACTIVE UNKNOWN

§ Identity

Operator
Country
US
Launch date
2024-05-13
Launch site
AFETR
Launch vehicle
Mass (kg)
RCS (m²)

Purposes: comms

External: N2YO · Heavens-Above · Gunter

§ Orbital elements

Epoch: 2026-05-25T05:01:29.923104Z

Period
94.27 min
Inclination
43.0018°
Eccentricity
0.0001054
Mean motion
15.27577531 rev/d
Perigee alt
482.3 km
Apogee alt
483.8 km
Semi-major
6,861.2 km
B*
3.5202e-5
RAAN
111.2855°
Arg perigee
273.8660°
Mean anomaly
86.2071°
Rev number
11,514

§ Raw data

STARLINK-317071 59736U 24090G   26145.20937411  .00000707  00000+0  35202-4 0  99992 59736  43.0018 111.2855 0001054 273.8660  86.2071 15.27577531115142

JSON: /api/v1/satellites/59736 · /tle

For live sub-satellite position, see the globe view (requires WebGL).

§ Visibility from observer

Set your observer location to see the next 7 days of passes ≥ 10°. The values pass through the URL so the page stays shareable.

No JS? Fill the form by hand. The geolocation button needs JavaScript.